Location: B?lite?ti
(46.2833°N, 22.7333°E)
Time: 17:29:18
(UTC+00:00)

SJ 16-02 - Pass Details

Date: 24 January 2021
Orbit: 606 x 616 km, 75.0° (Epoch: 01 March)

Event Time Altitude Azimuth Distance (km) Brightness Sun altitude
Rises 18:12:00 0° 257° (WSW) 2,870 5.9 -29.2°
Reaches altitude 10° 18:15:57 10° 293° (WNW) 1,969 4.7 -29.9°
Maximum altitude 18:17:17 11° 310° (NW) 1,893 4.4 -30.1°
Drops below altitude 10° 18:18:37 10° 328° (NNW) 1,971 4.3 -30.3°
Enters shadow 18:20:29 - 349° (NNW) 2,308 4.4 -30.6°
